TimeEDT,TemperatureF,Dew PointF,Humidity,Sea Level PressureIn,VisibilityMPH,Wind Direction,Wind SpeedMPH,Gust SpeedMPH,PrecipitationIn,Events,Conditions,WindDirDegrees,DateUTC
12:56 AM,50.0,35.1,57,29.96,10.0,SSW,4.6,-,N/A,,Clear,210,2011-10-26 04:56:00
1:56 AM,48.0,37.0,66,29.93,10.0,Calm,Calm,-,N/A,,Mostly Cloudy,0,2011-10-26 05:56:00
2:56 AM,48.9,36.0,61,29.91,10.0,Calm,Calm,-,N/A,,Clear,0,2011-10-26 06:56:00
3:56 AM,44.1,37.0,76,29.90,10.0,NNE,4.6,-,N/A,,Partly Cloudy,20,2011-10-26 07:56:00
4:56 AM,46.0,37.0,71,29.91,10.0,Calm,Calm,-,N/A,,Partly Cloudy,0,2011-10-26 08:56:00
5:56 AM,48.9,37.9,66,29.90,10.0,West,3.5,-,0.00,Rain,Light Rain,260,2011-10-26 09:56:00
6:56 AM,46.0,42.1,86,29.90,6.0,Calm,Calm,-,0.10,Rain,Light Rain,0,2011-10-26 10:56:00
7:18 AM,46.4,42.8,87,29.89,10.0,South,4.6,-,0.01,Rain,Light Rain,180,2011-10-26 11:18:00
7:49 AM,46.4,42.8,87,29.88,10.0,SSW,4.6,-,0.02,Rain,Light Rain,200,2011-10-26 11:49:00
7:56 AM,46.9,43.0,86,29.88,10.0,South,6.9,-,0.02,Rain,Light Rain,190,2011-10-26 11:56:00
8:25 AM,46.4,44.6,93,29.87,9.0,SSW,6.9,-,0.02,Rain,Light Rain,210,2011-10-26 12:25:00
8:56 AM,48.0,44.1,86,29.87,10.0,SW,10.4,17.3,0.02,,Overcast,220,2011-10-26 12:56:00
9:52 AM,50.0,44.6,82,29.86,10.0,SW,10.4,-,N/A,,Overcast,230,2011-10-26 13:52:00
9:56 AM,50.0,46.0,86,29.86,10.0,SW,9.2,-,N/A,,Overcast,230,2011-10-26 13:56:00
10:56 AM,52.0,46.9,83,29.86,10.0,WSW,13.8,-,N/A,,Overcast,240,2011-10-26 14:56:00
11:11 AM,51.8,46.4,82,29.86,10.0,WSW,13.8,21.9,N/A,,Overcast,240,2011-10-26 15:11:00
11:56 AM,53.6,48.2,82,29.83,10.0,SW,9.2,-,N/A,,Overcast,230,2011-10-26 15:56:00
12:42 PM,55.4,50.0,82,29.82,10.0,WSW,17.3,23.0,N/A,,Overcast,240,2011-10-26 16:42:00
12:56 PM,57.0,50.0,77,29.81,10.0,WSW,17.3,-,N/A,,Overcast,240,2011-10-26 16:56:00
1:56 PM,57.0,50.0,77,29.79,10.0,WSW,13.8,29.9,N/A,,Overcast,240,2011-10-26 17:56:00
2:56 PM,57.2,50.0,77,29.77,10.0,SW,10.4,-,N/A,,Overcast,230,2011-10-26 18:56:00
3:56 PM,57.0,50.0,77,29.78,10.0,WSW,10.4,-,N/A,,Overcast,240,2011-10-26 19:56:00
4:46 PM,57.2,50.0,77,29.77,10.0,WSW,9.2,-,N/A,,Overcast,240,2011-10-26 20:46:00
4:56 PM,57.0,50.0,77,29.78,10.0,WSW,9.2,-,N/A,,Overcast,240,2011-10-26 20:56:00
5:48 PM,55.4,50.0,82,29.78,10.0,WSW,6.9,-,0.00,,Overcast,240,2011-10-26 21:48:00
5:56 PM,55.9,50.0,80,29.78,10.0,WSW,6.9,-,0.00,,Overcast,250,2011-10-26 21:56:00
6:56 PM,55.9,50.0,80,29.78,10.0,WSW,5.8,-,N/A,,Overcast,240,2011-10-26 22:56:00
7:56 PM,55.9,50.0,80,29.78,10.0,WSW,8.1,-,N/A,,Overcast,240,2011-10-26 23:56:00
8:56 PM,55.0,50.0,83,29.77,10.0,SW,10.4,-,N/A,,Overcast,230,2011-10-27 00:56:00
9:56 PM,54.0,51.1,90,29.76,6.0,SSW,4.6,-,N/A,,Overcast,210,2011-10-27 01:56:00
10:56 PM,55.0,51.1,86,29.73,10.0,Calm,Calm,-,N/A,,Overcast,0,2011-10-27 02:56:00
11:56 PM,55.0,51.1,86,29.70,10.0,Variable,5.8,-,N/A,,Overcast,0,2011-10-27 03:56:00